Location: ??????
(36.0418°N, 43.6351°E)
Time: 05:25:21
(UTC+00:00)

Cosmos 883 Rocket - Pass Details

Date: 24 June 2021
Orbit: 950 x 996 km, 83.0° (Epoch: 27 July)

Event Time Altitude Azimuth Distance (km) Brightness Sun altitude
Rises 00:58:40 0° 339° (NNW) 3,631 7.7 -9.4°
Reaches altitude 10° 01:01:34 10° 327° (NNW) 2,679 6.9 -8.9°
Maximum altitude 01:06:26 26° 274° (W) 1,794 5.5 -8.1°
Drops below altitude 10° 01:11:18 10° 221° (SW) 2,670 6.2 -7.3°
Enters shadow 01:12:12 - 216° (SW) 2,950 6.4 -7.2°
